This is the latest recevied weather packets stored in our database for station/object IU7LMH-13. If no packets are shown the sender has not sent any weather packets the latest 10 day(s).
| Time | Temp. | Humidity | Pressure | Rain* | Wind** | Luminosity | Snow |
|---|---|---|---|---|---|---|---|
| 1777809940 | 26.11° C | 30% | 1017.1 hPa | 0 mm | - | - | - |
| 1777809577 | 26.11° C | 28% | 1017.2 hPa | 0 mm | - | - | - |
| 1777809343 | 26.11° C | 28% | 1017.2 hPa | 0 mm | - | - | - |
| 1777809219 | 26.11° C | 28% | 1017.3 hPa | 0 mm | - | - | - |
| 1777808020 | 24.44° C | 30% | 1017.2 hPa | 0 mm | - | - | - |
| 1777806944 | 25.56° C | 31% | 1017.2 hPa | 0 mm | - | - | - |
| 1777806458 | 25° C | 32% | 1017.2 hPa | 0 mm | - | - | - |
| 1777805976 | 25.56° C | 31% | 1017.3 hPa | 0 mm | - | - | - |
| 1777805860 | 25° C | 33% | 1017 hPa | 0 mm | - | - | - |
| 1777805618 | 24.44° C | 33% | 1017.1 hPa | 0 mm | - | - | - |
| 1777805497 | 24.44° C | 34% | 1017.3 hPa | 0 mm | - | - | - |
| 1777805145 | 25° C | 32% | 1017.2 hPa | 0 mm | - | - | - |
| 1777805018 | 24.44° C | 32% | 1017.4 hPa | 0 mm | - | - | - |
| 1777804539 | 25° C | 34% | 1017.3 hPa | 0 mm | - | - | - |
| 1777804177 | 25° C | 32% | 1017.4 hPa | 0 mm | - | - | - |
| 1777803342 | 24.44° C | 34% | 1017.5 hPa | 0 mm | - | - | - |
| 1777803218 | 24.44° C | 34% | 1017.5 hPa | 0 mm | - | - | - |
| 1777803097 | 24.44° C | 34% | 1017.4 hPa | 0 mm | - | - | - |
| 1777802739 | 24.44° C | 33% | 1017.7 hPa | 0 mm | - | - | - |
| 1777802257 | 24.44° C | 33% | 1017.8 hPa | 0 mm | - | - | - |
| 1777801177 | 24.44° C | 33% | 1017.7 hPa | 0 mm | - | - | - |
| 1777801058 | 23.89° C | 34% | 1017.9 hPa | 0 mm | - | - | - |
| 1777800939 | 23.89° C | 34% | 1017.9 hPa | 0 mm | - | - | - |
| 1777800698 | 24.44° C | 33% | 1017.8 hPa | 0 mm | - | - | - |
| 1777799858 | 23.89° C | 34% | 1018 hPa | 0 mm | - | - | - |
* Rain latest hour (hover to see other rain measurements)
** Current wind speed in m/s (hover to see current wind gust speed)